Regional Weather Roundup
Issued by NWS

Home | Current Version | Previous Version | Graphics & Text | Print | Product List | Glossary On
Versions: 1 2 3 4 5 6 7 8 9 10 11 12 13 14 15 16 17 18 19 20 21 22 23 24 25 26 27 28 29 30 31 32 33 34 35 36 37 38 39 40 41 42 43 44 45 46 47 48 49 50
000
ASUS45 KPSR 220200
RWRAZ

PRELIMINARY ARIZONA REGIONAL HOURLY WEATHER ROUNDUP
NATIONAL WEATHER SERVICE PHOENIX AZ
700 PM MST TUE OCT 21 2014

NOTE: FAIR INDICATES FEW OR NO CLOUDS BELOW 12,000 FEET WITH NO
SIGNIFICANT WEATHER AND/OR OBSTRUCTIONS TO VISIBILITY.

AZZ001>003-036-220300-
NORTHWEST ARIZONA

CITY           SKY/WX    TMP DP  RH WIND       PRES   REMARKS
KINGMAN        CLEAR     66  43  43 S8        29.93R
$$

AZZ004>008-015-016-018-220300-
NORTH CENTRAL ARIZONA

CITY           SKY/WX    TMP DP  RH WIND       PRES   REMARKS
GRAND CANYON   PTCLDY    49  33  54 CALM      30.10R
PRESCOTT       CLEAR     63  43  48 S6        30.02R
FLAGSTAFF      CLEAR     49  36  61 CALM      30.13R
PAYSON         CLEAR     61  46  59 S3        30.07R
PAGE           CLEAR     67  36  31 SE3       29.93R
$$

AZZ009>014-017-220300-
NORTHEAST ARIZONA

CITY           SKY/WX    TMP DP  RH WIND       PRES   REMARKS
WINSLOW        NOT AVBL
SAINT JOHNS    MOCLDY    62  45  53 SW9       30.05R
WINDOW ROCK    MOCLDY    55  43  63 SW5       30.12
$$

AZZ023-220300-
GREATER PHOENIX AREA

CITY           SKY/WX    TMP DP  RH WIND       PRES   REMARKS
PHOENIX        PTCLDY    85  51  31 W3        29.79R
GLENDALE       PTCLDY    82  54  36 S5        29.81R
LUKE AFB       CLEAR     80  54  39 CALM      29.80R
DEER VALLEY    CLEAR     80  49  33 CALM      29.82R
SCOTTSDALE     CLEAR     81  50  33 CALM      29.84R
MESA-FALCON    PTCLDY    81  48  32 W7        29.82R
MESA-GATEWAY   PTCLDY    81  48  32 CALM      29.84R
CHANDLER       PTCLDY    81  52  36 W7        29.81R
$$

AZZ027-028-220300-
SOUTHWEST MARICOPA COUNTY AND PINAL COUNTY

CITY           SKY/WX    TMP DP  RH WIND       PRES   REMARKS
CASA GRANDE    CLEAR     77  48  36 CALM      29.83R
$$

AZZ503-504-507>509-220300-
SOUTHEAST ARIZONA

CITY           SKY/WX    TMP DP  RH WIND       PRES   REMARKS
TUCSON         CLOUDY    78  46  32 N5        29.89R
DAVIS-MONTHAN  PTCLDY    77  46  33 NW6       29.88R
RYAN FIELD       N/A     79  52  38 W5        29.88R
NOGALES        PTCLDY    63  45  51 MISG      29.95R
SIERRA VISTA   MOCLDY    64  46  52 SW7       30.00R
SAFFORD        PTCLDY    70  54  56 CALM      29.92R
$$

AZZ020-021-025-026-031-220300-
SOUTHWEST ARIZONA

CITY           SKY/WX    TMP DP  RH WIND       PRES   REMARKS
YUMA           NOT AVBL
$$

CAZ031-033-041-043-047-048-061-220300-
SOUTHERN CALIFORNIA

CITY           SKY/WX    TMP DP  RH WIND       PRES   REMARKS
DOWNTOWN L.A.  CLEAR     70  60  70 W3        29.84R
L.A. AIRPORT   PTCLDY    68  64  87 W9        29.85R
SAN DIEGO      MOCLDY    70  63  78 N9        29.87R
BURBANK        CLEAR     70  59  68 S3        29.84S
ONTARIO        PTCLDY    72  56  57 W7        29.85R
RIVERSIDE      CLEAR     72  58  61 W7        29.85R
PALM SPRINGS   PTCLDY    88  39  17 NW14      29.77R
EL CENTRO NAS  PTCLDY    84  51  31 SE5       29.71R
IMPERIAL       PTCLDY    88  50  27 E3        29.71R
BLYTHE         MOCLDY    85  49  28 NE6       29.74R
$$

NVZ020-UTZ003-220300-
SOUTHERN NEVADA-UTAH

CITY           SKY/WX    TMP DP  RH WIND       PRES   REMARKS
LAS VEGAS      NOT AVBL
SALT LAKE CITY MOCLDY    56  29  35 N3        30.04R
$$

NMZ009-TXZ055-220300-
NEW MEXICO-WEST TEXAS

CITY           SKY/WX    TMP DP  RH WIND       PRES   REMARKS
ALBUQUERQUE    PTCLDY    61  47  59 S6        30.08R
EL PASO        PTCLDY    65  53  65 E8        30.01S
$$


........................KEY........................
SKY/WX - SKY CONDITION/WEATHER
TMP    - TEMPERATURE IN FAHRENHEIT
DP     - DEW POINT IN FAHRENHEIT
RH     - RELATIVE HUMIDITY IN PERCENT
WIND   - DIRECTION AND SPEED IN MILES PER HOUR (MPH)
VRB    - VARIABLE WIND DIRECTION
PRES   - MEAN SEA LEVEL PRESSURE IN INCHES OF MERCURY
         F - FALLING PRESSURE   R - RISING PRESSURE
         S - STEADY PRESSURE
VSB    - VISIBILITY IN MILES
HX     - HEAT INDEX IN FAHRENHEIT
WCI    - WIND CHILL INDEX IN FAHRENHEIT
TC     - TEMPERATURE IN CELSIUS WHICH IS ALSO KNOWN AS
         TEMPERATURE IN CENTIGRADE
AFB    - AIR FORCE BASE
         LUKE AFB IS LUKE AIR FORCE BASE
         DAVIS-MONTHAN IS DAVIS-MONTHAN AIR FORCE BASE
NAS    - NAVAL AIR STATION
         EL CENTRO NAS IS EL CENTRO NAVAL AIR STATION
N/A    - NOT AVAILABLE



USA.gov is the U.S. government's official web portal to all federal, state and local government web resources and services.